CZ-6A DEB, 54484

Orbit data source: Space-Track

CZ-6A DEB, 54484 is space debris in SSO originally from a launch on Fri, 11 Nov 2022 UTC launched from the Taiyaun Space Center, China (TSC). Debris objects in space refer to the collection of defunct objects orbiting the Earth. Examples of debris include non-operational satellites, rocket bodies, and fragments generated from explosions, collisions, or faulty payload assembly.

Loading next visibility...
Identifier
54484, 2022-151HL
Orbit
SSO
Country
Flag of CNCN / PRC
Related business
Manufacturer
SAST
Mission
Spacecraft
Bus & Motor
Unknown
Mass
Unknown
Launch date (UTC)
2022-11-11 (4 years ago)
Launch vehicle
Unknown
Launch site
Taiyaun Space Center, China (TSC)
Object type
Payload
Rocket body
Debris
Shape & HBR
Unknown shape, 0.1 m
Radar Cross Section
Medium (>0.1 m² and <1 m²)

Expand to show TLE details & history
Last TLE update: 2 days ago

TLE from 2 days ago
0 CZ-6A DEB
1 54484U 22151HL  26171.18930049  .00012886  00000-0  16149-2 0  9995
2 54484  98.6153 244.9904 0059291 237.8684 121.6764 14.81116774190888
Epoch: 2026-06-20T04:32Z
TLE epoch observation values (Epoch: 2026-06-20T04:32:35.562Z)
Latitude
-0.00007°
Longitude
-91.56526°
Altitude
650.791 km
Speed
7.52 km/s
True Right ascension
16h 19m 57s
True Declination
0° 00' 00"
Sunlit
Object was in full shadow at epoch
Visualization orbit readout
Latitude
Unknown
Longitude
Unknown
Altitude
Unknown
Speed
Unknown
Apparent Right ascension
Unknown
Apparent Declination
Unknown
Sunlit
N/A
Visualization observer readout
Local Sidereal Time
21:34:02
Azimuth
Unknown
Elevation
Unknown
Doppler factor
Unknown
Orbital elements
Apogee altitude
664.384 km
Perigee altitude
581.364 km
Semi-major axis
7,001.011 km
Eccentricity
0.00593
Inclination
98.6153°
RAAN
244.9904°
Arg. of periapsis
237.8684°
True anomaly
122.25236°
Mean anomaly
121.6764°
Eccentric anomaly
121.9646°
Mean motion
3.70512 °/min
Orbital period
97.16 mins
BSTAR
0.0016149
Loading maneuver chart data...
Computing Atmospheric mass density...
Loading historical data...
Loading historical data...
Loading historical data...
Loading historical data...
Loading historical data...
Loading historical data...
Loading historical data...

Documentation

Showing up to 5 results
|